Simultaneous Nadir Overpasses (SNOs) Predictions

Prediction of SNOs between GOES-17 and AQUA Satellite Orbit:

Table of predicted SNOs for the next 14.0 days since TLE Epoch: 11/9/2024
Index Date Time (GOES-17) GOES-17 Lat,Lon AQUA Lat,Lon Distance(km) Time Diff (sec)
1 11/09/2024 21:11:30 0.00,-104.68 0.51,-102.15 287.70 80
2 11/10/2024 09:31:10 -0.00,-104.71 0.46,-106.91 249.53 80
3 11/12/2024 09:10:06 -0.00,-104.72 -0.50,-102.41 263.14 80
4 11/12/2024 21:29:52 0.00,-104.69 -0.55,-107.19 284.57 80
5 11/14/2024 21:14:05 -0.00,-104.69 0.42,-102.67 229.67 80
6 11/15/2024 09:33:43 -0.00,-104.73 0.59,-107.42 306.33 80
7 11/17/2024 09:12:33 -0.00,-104.73 -0.37,-102.89 208.52 80
8 11/17/2024 21:32:19 0.00,-104.69 -0.63,-107.68 339.19 80
9 11/19/2024 21:16:26 -0.00,-104.70 0.34,-103.14 177.44 80
10 11/20/2024 09:36:03 0.00,-104.74 0.65,-107.89 357.32 80
11 11/22/2024 09:14:47 0.00,-104.75 -0.31,-103.33 160.84 80
12 11/22/2024 21:34:31 0.00,-104.70 -0.71,-108.11 386.44 80
